Погода в Жлобине

Беларусь     52°53′32″N   30°02′16″E
темп.,
°C
ветер,
м/с
пор.,
м/с
влажн.,
%
обл.,
%
осадки,
мм/ч
давл.,
гПа
погр.,
м
21 апреля, ср
ср2100:00+5с3691100 0.1 1010310
03:00+5ссз3594100 0.2 1010294
06:00+5ссз3494100 0.1 1009280
09:00+6зсз2387100 0.1 1010401
12:00+10з456257 0.1 10101355
15:00+11зюз455999 0.2 10101425
18:00+11юз576490 0.3 10091171
21:00+9ю3686100 1.6 1010167
22 апреля, чт
чт2200:00+7ююз4994100 0.5 1010222
03:00+6ююз389440 0.6 1011147
06:00+5ю489633 0.4 1011172
09:00+9ююз578420 0.6 1011438
12:00+14юз68625 0.1 10111336
15:00+16зюз7104429 0.4 10112353
18:00+14ююз6961100 0.3 10101156
21:00+8юз3693100 5.8 1012201
23 апреля, пт
пт2300:00+7зюз4890100 0.1 1012287
03:00+5зюз3780100 0.9 1013662
06:00+5юз4784100 0.1 1014326
09:00+6зюз5773100 0.1 1014738
12:00+7зюз5757100 0.0 10151389
15:00+9юз5749100 0.0 10141838
18:00+8з4661100 0.4 10141013
21:00+4зсз367729 0.6 1014126
24 апреля, сб
сб2400:00+3зсз228285 0.0 101431
03:00+1з37850 0.0 1013133
06:000зсз368597 0.0 1013134
09:00+4зсз576697 0.0 1013685
12:00+6з6846100 0.0 10131655
15:00+7зсз895798 0.2 10131752
18:00+6з58596 0.1 10141367
21:00+3зюз49727 0.1 1014189
25 апреля, вс
вс2500:00+1з498598 0.0 1014201
03:000з410935 0.0 1014279
06:00−1зюз512905 0.0 1014443
09:00+2з797299 0.0 1013973
12:00+3зюз687299 0.1 10141141
15:00+6з81060100 0.8 10131577
18:00+5з7106098 0.4 10131449
21:00+2зюз5117460 0.4 1013348